Domov               UVHVVR             MKGP            O straneh              
ZDRAVSTVENO VARSTVO RASTLIN
  MREŽA AGROMET. POSTAJ
 ► PROGNOSTIČNA OBVESTILA
AGROMETEOROLOŠKI PODATKI -
ARSO
OBVLADOVANJE TVEGANJ ZARADI
NEUGODNIH VREMENSKIH RAZMER
  ► NARAVNE NESREČE
  ► SUŠA/MOČA
  ► NAMAKANJE
  ► ŽLED (gozdarstvo)
KARTOGRAFSKI PRIKAZI
SPLETNE POVEZAVE
PROJEKTI IN PUBLIKACIJE

AGROMETEOROLOŠKA MREŽA: VREMENSKE POSTAJE IN FENOLOŠKA OPAZOVANJA

Pregled podatkov za lokacijo Kostanjevica na Krki, meteorološka postaja 855712

Pregled senzorjev na lokaciji

ID Ime Zadnja
vrednost
Datum
zadnje
spremembe
Tip
senzorja
3850 Temperatura 2 m ( °C) 6,05 °C 17.10.2017 07:30 50YA
3851 Relativna vlaga 2 m (% RH) 100 % RH 17.10.2017 07:30 50YA
3852 Omočenost lista (U) 10 U 17.10.2017 07:30 A730WET
3853 Padavine 0.2 mm (mm) 0 mm 17.10.2017 07:30 Rain-O-Matic

Pregled podatkov zadnjih 24 ur

Zap.
št.
Datum in čas Kostanjevica na Krki
Omočenost
lista
Padavine
0.2
mm
Relativna
vlaga
2
m
Temperatura
2
m
0 17.10.2017 06:30 10 0 100 6,05
1 17.10.2017 06:00 10 0 100 6,27
2 17.10.2017 05:30 10 0 100 6,02
3 17.10.2017 05:00 10 0 100 6,63
4 17.10.2017 04:30 10 0 100 7,18
5 17.10.2017 04:00 10 0 100 6,83
6 17.10.2017 03:30 10 0 100 6,6
7 17.10.2017 03:00 10 0 100 6,92
8 17.10.2017 02:30 10 0 100 7,62
9 17.10.2017 02:00 10 0 100 8,46
10 17.10.2017 01:30 10 0 100 8,74
11 17.10.2017 01:00 10 0 100 9,03
12 17.10.2017 00:30 10 0 100 8,99
13 17.10.2017 00:00 10 0 100 9,15
14 16.10.2017 23:30 10 0 100 9,8
15 16.10.2017 23:00 10 0 100 10,02
16 16.10.2017 22:30 10 0 100 10,33
17 16.10.2017 22:00 10 0 100 10,34
18 16.10.2017 21:30 10 0 100 10,92
19 16.10.2017 21:00 9 0 99,92 11,05
20 16.10.2017 20:30 9 0 99,86 11,32
21 16.10.2017 20:00 8 0 100 11,51
22 16.10.2017 19:30 6 0 99,9 12,08
23 16.10.2017 19:00 4 0 98,58 12,65
24 16.10.2017 18:30 4 0 97,85 13,17
25 16.10.2017 18:00 3 0 98,33 13,69
26 16.10.2017 17:30 2 0 96,57 14,6
27 16.10.2017 17:00 2 0 87,8 17,04
28 16.10.2017 16:30 0 0 76,53 19,8
29 16.10.2017 16:00 0 0 70,69 21,83
30 16.10.2017 15:30 0 0 64,94 22,92
31 16.10.2017 15:00 0 0 58,63 23,25
32 16.10.2017 14:30 0 0 58,68 22,77
33 16.10.2017 14:00 0 0 61,41 22,33
34 16.10.2017 13:30 0 0 61,14 22,44
35 16.10.2017 13:00 0 0 64,15 21,63
36 16.10.2017 12:30 0 0 68,48 21,11
37 16.10.2017 12:00 0 0 71,78 20,14
38 16.10.2017 11:30 0 0 75,63 19
39 16.10.2017 11:00 0 0 79,38 17,64
40 16.10.2017 10:30 4 0 86,15 15,49
41 16.10.2017 10:00 10 0 94,96 13,32
42 16.10.2017 09:30 10 0 100 11,28
43 16.10.2017 09:00 10 0 100 9,58
44 16.10.2017 08:30 10 0 100 8,54
45 16.10.2017 08:00 10 0 100 7,84
© 2011 Ministrstvo za kmetijstvo, gozdarstvo in prehrano. Vse pravice pridržane.